User: anonymous   Login
Location: Unspecified
(0.0000°N, 0.0000°E)
Time: 22:06:39
(UTC+00:00)
Language:

AIST 2D - Orbit

View from above orbital plane
View from above orbital plane
View from above satellite
View from above satellite

Ground track
Ground track

The orbit data is extracted from the following two-line orbital elements,

1 41465U 16026B   20184.50127521 +.00000891 +00000-0 +28677-4 0  9995
2 41465 097.1506 073.9858 0010785 186.5392 298.5763 15.34742037233739
Epoch (UTC): 02 July 2020 12:01:50
Eccentricity: 0.0010785
inclination: 97.1506°
perigee height: 454 km
apogee height: 469 km
right ascension of ascending node: 73.9858°
argument of perigee: 186.5392°
revolutions per day: 15.34742037
mean anomaly at epoch: 298.5763°
orbit number at epoch: 23373

The dashed part of the orbit path shows where the satellite is in the earth's shadow,  

DLR